Terminal Aerodrome Forecast
Issued by NWS Pocatello, ID

Home | Current Version | Previous Version | Text Only | Print | Product List | Glossary On
Versions: 1 2 3 4 5 6 7 8 9 10 11 12 13 14 15 16 17 18 19 20 21 22 23 24
000
FTUS45 KPIH 031120
TAFBYI
TAF
KBYI 031120Z 0312/0412 20006KT P6SM FEW110 SCT200
     FM031900 28012KT P6SM SCT100 SCT180
     FM040300 24007KT P6SM SCT200=

USA.gov is the U.S. government's official web portal to all federal, state and local government web resources and services.